[[{"header":{"parameterUnit":"m.s-1","parameterCategory":1,"la1":30.2991,"la2":30.254,"lo1":-89.0895,"lo2":-89.0444,"dy":0.0017,"dx":0.0017,"nx":28,"ny":28,"refTime":"2024-08-22T03:00:00:Z","depth":0,"parameterNumber":2,"parameterNumberName":"U-component_of_WINDS"},"data":[0,0,0,0,0,0,0,0,0,0,0,0,0,0,0,0,0,0,0,0,0,0,0,0,0,0,0,0,0,0,0,0,0,0,0,0,0,0,0,0,0,0,0,0,0,0,0,0,0,0,0,0,0,0,0,0,0,0,-0.9476,-0.9476,0,-0.9477,-0.9477,-0.9477,-0.9436,-0.9435,-0.9434,-0.9433,-0.9433,-0.9434,-0.9435,0,0,0,0,0,0,0,0,0,0,0,0,0,-0.944,-0.944,-0.9476,-0.9476,-0.9476,-0.9477,-0.9477,-0.9477,-0.9436,-0.9435,-0.9433,-0.9432,-0.9432,-0.9434,-0.9435,0,0,0,0,0,0,0,0,0,0,0,0,0,-0.9449,-0.9441,-0.9476,-0.9456,-0.9454,-0.9477,-0.9477,-0.9477,-0.9436,-0.9435,-0.9433,-0.9431,-0.9432,-0.9434,-0.9435,-0.9477,0,0,-0.944,-0.944,0,0,0,0,0,0,0,0,-0.9449,-0.9451,-0.9459,-0.9457,-0.9455,-0.9455,-0.9464,-0.9477,-0.9437,-0.9443,-0.9432,-0.9431,-0.9441,-0.9442,-0.9446,-0.9477,-0.9477,-0.944,-0.9441,-0.9441,-0.9442,0,0,0,0,0,0,0,-0.9448,-0.9451,-0.9476,-0.9459,-0.9457,-0.9447,-0.9446,-0.9466,-0.9451,-0.9442,-0.9439,-0.944,-0.944,-0.9444,-0.9445,-0.9477,-0.944,-0.9441,-0.9442,-0.9443,-0.9543,-0.9545,0,0,0,0,0,0,-0.945,-0.945,-0.9476,-0.9476,-0.9448,-0.9449,-0.9448,-0.9456,-0.9451,-0.9449,-0.9441,-0.9438,-0.9442,-0.9444,-0.9445,-0.9494,-0.9441,-0.9443,-0.9444,-0.9541,-0.9544,-0.9546,0,0,0,0,0,0,-0.945,-0.9453,-0.9476,-0.9463,-0.9465,-0.9451,-0.9461,-0.9457,-0.9461,-0.945,-0.9447,-0.9448,-0.9441,-0.9443,-0.9469,-0.9494,-0.9444,-0.9445,-0.9539,-0.9542,-0.9545,-0.9592,0,0,0,0,0,0,-0.9449,-0.9453,-0.9469,-0.9463,-0.9466,-0.9501,-0.9462,-0.9458,-0.9464,-0.946,-0.9456,-0.9454,-0.944,-0.9467,-0.9471,-0.9495,-0.9446,-0.9537,-0.9541,-0.9544,-0.9589,-0.9596,-0.9603,0,0,0,0,0,-0.9448,-0.9482,-0.947,-0.9473,-0.9485,-0.9502,-0.9504,-0.9487,-0.9466,-0.9482,-0.9475,-0.9454,-0.949,-0.9471,-0.9474,-0.9499,-0.9536,-0.954,-0.9543,-0.9585,-0.9595,-0.9603,0,0,0,0,0,0,-0.9491,-0.9481,-0.9467,-0.9501,-0.9503,-0.9495,-0.9515,-0.9498,-0.9505,-0.9501,-0.948,-0.9479,-0.9509,-0.9507,-0.9485,-0.9539,-0.9509,-0.9514,-0.954,-0.9549,-0.9556,-0.9556,-0.9447,0,0,0,0,0,-0.9504,-0.9519,-0.951,-0.954,-0.9542,-0.9529,-0.9535,-0.9523,-0.9523,-0.9524,-0.9519,-0.952,-0.9532,-0.954,-0.955,-0.9588,-0.9587,-0.9607,-0.9614,-0.962,-0.9624,-0.9644,-0.9653,-0.9558,-0.9558,-0.9558,0,0,-0.9532,-0.9529,-0.9539,-0.9549,-0.9549,-0.9565,-0.9529,-0.9547,-0.9559,-0.9527,-0.9551,-0.9548,-0.9548,-0.9581,-0.9594,-0.9579,-0.965,-0.9625,-0.963,-0.9631,-0.9649,-0.9658,-0.9666,-0.9561,-0.9561,-0.956,0,0,-0.9591,-0.959,-0.9615,-0.9616,-0.9617,-0.9607,-0.9614,-0.9609,-0.9605,-0.963,-0.9606,-0.9619,-0.964,-0.9642,-0.9645,-0.9705,-0.9686,-0.9709,-0.9747,-0.9766,-0.9774,-0.978,-0.9802,-0.981,-0.9714,-0.9714,-0.9714,0,-0.9626,-0.9649,-0.9631,-0.9651,-0.9656,-0.9628,-0.9653,-0.9655,-0.9659,-0.9663,-0.9646,-0.9671,-0.967,-0.9702,-0.9717,-0.972,-0.9727,-0.9709,-0.9774,-0.978,-0.9786,-0.9806,-0.9815,-0.9717,-0.9716,-0.9716,-0.9716,0,-0.9691,-0.9708,-0.9728,-0.9733,-0.974,-0.9763,-0.9749,-0.9758,-0.9745,-0.9738,-0.9763,-0.976,-0.9769,-0.9776,-0.9763,-0.9807,-0.9797,-0.9778,-0.9747,-0.9798,-0.9817,-0.9825,-0.9721,-0.972,-0.9719,-0.9718,0,0,-0.9776,-0.9772,-0.9779,-0.9781,-0.978,-0.9792,-0.9814,-0.9823,-0.9832,-0.9836,-0.9853,-0.9872,-0.9854,-0.9858,-0.9845,-0.9862,-0.991,-0.984,-0.984,-0.9853,-0.9958,-0.9973,-0.9982,-0.9898,-0.9899,-0.99,-0.9958,0,-0.9833,-0.987,-0.9855,-0.9893,-0.9908,-0.9882,-0.9901,-0.9902,-0.9896,-0.9908,-0.9901,-0.9914,-0.9889,-0.9892,-0.9908,-0.9901,-0.9931,-0.9896,-0.9914,-0.9914,-0.9914,-0.9992,-1.0007,-1.0062,-0.9965,-0.9966,-0.9967,0,-0.9905,-0.9912,-0.9952,-0.9948,-0.9954,-0.9971,-0.9979,-0.999,-0.9991,-0.9986,-0.9991,-0.9974,-0.9995,-0.9965,-0.9994,-0.9971,-0.9977,-0.9975,-0.9976,-0.9977,-0.9944,-0.9994,-1.0079,-1.0087,-0.9978,-0.9978,-0.9977,0,-0.9963,-0.9982,-1.0009,-1.0011,-1.0008,-1.0021,-1.002,-1.0019,-1.0026,-1.0033,-1.0037,-1.0046,-1.0051,-1.0058,-1.0044,-1.0024,-1.0075,-1.0044,-1.0071,-1.0071,-1.0082,-1.0082,-1.0169,-1.0087,-1.0087,-1.0087,-1.0087,0,-1.0028,-1.0053,-1.0035,-1.0051,-1.0079,-1.0061,-1.0089,-1.0086,-1.0086,-1.01,-1.0078,-1.0093,-1.0074,-1.0087,-1.0076,-1.0102,-1.0104,-1.01,-1.0097,-1.0102,-1.0102,-1.0105,-1.0101,-1.0089,-1.0088,-1.0088,-1.0088,0,-1.0097,-1.0086,-1.0113,-1.0108,-1.0107,-1.0128,-1.0124,-1.0138,-1.0131,-1.015,-1.0154,-1.0142,-1.0156,-1.0143,-1.0157,-1.0149,-1.0183,-1.0175,-1.0183,-1.018,-1.0208,-1.0206,-1.03,-1.0311,-1.0223,-1.0223,-1.0224,0,-1.0139,-1.0158,-1.0156,-1.0164,-1.0165,-1.0179,-1.0186,-1.017,-1.0178,-1.0181,-1.0195,-1.0208,-1.0216,-1.024,-1.0232,-1.0242,-1.0234,-1.0266,-1.0235,-1.024,-1.0234,-1.0233,-1.0235,-1.0272,-1.0273,-1.0274,-1.0275,0,-1.0215,-1.0209,-1.022,-1.0229,-1.0238,-1.0245,-1.0249,-1.0258,-1.0241,-1.0251,-1.0265,-1.0272,-1.0286,-1.0298,-1.0306,-1.0305,-1.0287,-1.0285,-1.0292,-1.0297,-1.0301,-1.0299,-1.02,-1.0283,-1.0282,-1.0281,-1.0281,-1.0281,-1.0272,-1.0287,-1.0288,-1.0301,-1.0303,-1.0308,-1.0322,-1.0317,-1.0328,-1.0339,-1.0328,-1.0346,-1.0347,-1.0355,-1.0357,-1.037,-1.0356,-1.0366,-1.0368,-1.0371,-1.0375,-1.0299,-1.0371,-1.0371,-1.0371,-1.037,-1.037,0,-1.0346,-1.0345,-1.0358,-1.0365,-1.0376,-1.0359,-1.0363,-1.0373,-1.0389,-1.0391,-1.0401,-1.0417,-1.0429,-1.0423,-1.0433,-1.0445,-1.0437,-1.0448,-1.0447,-1.0447,-1.0386,-1.038,-1.0455,-1.0455,-1.0455,-1.0455,-1.0455,-1.0455,-1.0386,-1.0412,-1.0406,-1.0432,-1.0431,-1.0448,-1.0453,-1.0457,-1.0459,-1.0479,-1.0489,-1.0485,-1.0484,-1.0494,-1.0505,-1.0503,-1.0507,-1.0521,-1.0516,-1.046,-1.0451,-1.0443,-1.0437,-1.0523,-1.0523,-1.0576,-1.0576,-1.0577]},{"header":{"parameterUnit":"m.s-1","parameterCategory":1,"la1":30.2991,"la2":30.254,"lo1":-89.0895,"lo2":-89.0444,"dy":0.0017,"dx":0.0017,"nx":28,"ny":28,"refTime":"2024-08-22T03:00:00:Z","depth":0,"parameterNumber":3,"parameterNumberName":"V-component_of_WINDS"},"data":[0,0,0,0,0,0,0,0,0,0,0,0,0,0,0,0,0,0,0,0,0,0,0,0,0,0,0,0,0,0,0,0,0,0,0,0,0,0,0,0,0,0,0,0,0,0,0,0,0,0,0,0,0,0,0,0,0,0,-1.8624,-1.8624,0,-1.8656,-1.8656,-1.8657,-1.864,-1.8639,-1.8638,-1.8638,-1.8669,-1.8671,-1.8672,0,0,0,0,0,0,0,0,0,0,0,0,0,-1.8546,-1.8547,-1.8624,-1.8624,-1.8625,-1.8656,-1.8656,-1.8657,-1.864,-1.8639,-1.8638,-1.8637,-1.8669,-1.8671,-1.8673,0,0,0,0,0,0,0,0,0,0,0,0,0,-1.8579,-1.8548,-1.8624,-1.862,-1.862,-1.8656,-1.8657,-1.8657,-1.8641,-1.8639,-1.8638,-1.8637,-1.8668,-1.867,-1.8673,-1.8714,0,0,-1.868,-1.8681,0,0,0,0,0,0,0,0,-1.8577,-1.8582,-1.862,-1.862,-1.862,-1.8643,-1.8641,-1.8676,-1.8641,-1.8633,-1.8638,-1.8636,-1.8661,-1.8664,-1.8673,-1.8715,-1.8716,-1.8681,-1.8682,-1.8683,-1.8684,0,0,0,0,0,0,0,-1.8575,-1.858,-1.8636,-1.8621,-1.8621,-1.8616,-1.862,-1.8647,-1.8654,-1.8633,-1.8632,-1.8636,-1.8661,-1.8671,-1.8674,-1.8717,-1.868,-1.8683,-1.8684,-1.8685,-1.8795,-1.8796,0,0,0,0,0,0,-1.8573,-1.8579,-1.8635,-1.8637,-1.8595,-1.8619,-1.8622,-1.8637,-1.8653,-1.8655,-1.8637,-1.8635,-1.8667,-1.8671,-1.8675,-1.8725,-1.8683,-1.8685,-1.8687,-1.8793,-1.8795,-1.8797,0,0,0,0,0,0,-1.8571,-1.8578,-1.8634,-1.8608,-1.8615,-1.8621,-1.8638,-1.8638,-1.8648,-1.8657,-1.8657,-1.8646,-1.8666,-1.8671,-1.8704,-1.8725,-1.8686,-1.8689,-1.8792,-1.8794,-1.8796,-1.8824,0,0,0,0,0,0,-1.8569,-1.8578,-1.8594,-1.8608,-1.8616,-1.8664,-1.8639,-1.864,-1.8652,-1.865,-1.8665,-1.8666,-1.8666,-1.8701,-1.8707,-1.8728,-1.8691,-1.879,-1.8793,-1.8795,-1.8821,-1.8827,-1.8832,0,0,0,0,0,-1.8566,-1.86,-1.8595,-1.8602,-1.8636,-1.8665,-1.8669,-1.8669,-1.8654,-1.867,-1.8676,-1.8666,-1.8722,-1.8704,-1.8711,-1.8733,-1.8788,-1.8792,-1.8795,-1.8819,-1.8826,-1.8832,0,0,0,0,0,0,-1.8587,-1.8602,-1.8596,-1.8635,-1.8649,-1.8662,-1.8682,-1.8676,-1.8694,-1.8691,-1.8688,-1.8692,-1.8727,-1.8733,-1.8713,-1.8774,-1.8753,-1.8758,-1.8769,-1.8776,-1.8781,-1.8779,-1.8693,0,0,0,0,0,-1.8596,-1.8619,-1.863,-1.8664,-1.8671,-1.8676,-1.8688,-1.8686,-1.87,-1.8706,-1.8714,-1.8727,-1.8748,-1.8762,-1.8781,-1.8822,-1.8825,-1.884,-1.8845,-1.885,-1.8854,-1.8877,-1.8884,-1.8807,-1.8807,-1.8807,0,0,-1.8615,-1.8626,-1.864,-1.8668,-1.8679,-1.8702,-1.8681,-1.8706,-1.8723,-1.8709,-1.8742,-1.8748,-1.8763,-1.88,-1.8817,-1.8807,-1.8876,-1.8854,-1.8857,-1.886,-1.8881,-1.8888,-1.8895,-1.8809,-1.8809,-1.8809,0,0,-1.8662,-1.8672,-1.8702,-1.8713,-1.873,-1.8733,-1.874,-1.8754,-1.8758,-1.879,-1.878,-1.88,-1.8836,-1.8847,-1.8858,-1.8909,-1.8901,-1.8915,-1.8943,-1.8965,-1.8972,-1.8977,-1.8996,-1.9003,-1.892,-1.892,-1.892,0,-1.8684,-1.872,-1.8718,-1.8745,-1.8757,-1.8746,-1.8776,-1.8787,-1.8808,-1.8817,-1.8805,-1.885,-1.8859,-1.89,-1.8912,-1.892,-1.8929,-1.8914,-1.8971,-1.8976,-1.8981,-1.9,-1.9007,-1.8921,-1.8921,-1.8921,-1.8921,0,-1.8746,-1.8771,-1.8792,-1.8815,-1.883,-1.8858,-1.886,-1.8875,-1.8872,-1.8876,-1.8909,-1.8919,-1.8941,-1.895,-1.8947,-1.899,-1.8983,-1.8971,-1.895,-1.899,-1.9008,-1.9015,-1.8924,-1.8923,-1.8923,-1.8922,0,0,-1.8808,-1.8829,-1.8837,-1.8848,-1.8865,-1.8884,-1.8911,-1.8933,-1.8947,-1.8961,-1.8985,-1.9015,-1.9004,-1.9016,-1.9013,-1.9033,-1.9074,-1.9018,-1.9019,-1.903,-1.9124,-1.9134,-1.9143,-1.9068,-1.907,-1.9071,-1.9123,0,-1.8858,-1.8907,-1.8906,-1.8951,-1.8975,-1.8964,-1.8988,-1.9001,-1.9005,-1.9025,-1.9029,-1.9051,-1.9034,-1.9042,-1.906,-1.9065,-1.9093,-1.9061,-1.909,-1.9092,-1.9089,-1.9152,-1.9162,-1.9212,-1.913,-1.9131,-1.9132,0,-1.8922,-1.8941,-1.8989,-1.9003,-1.9013,-1.9035,-1.9055,-1.9074,-1.9088,-1.909,-1.9103,-1.9098,-1.9125,-1.9102,-1.9141,-1.9119,-1.913,-1.9135,-1.9137,-1.9141,-1.9115,-1.9159,-1.9227,-1.9235,-1.9142,-1.9141,-1.9141,0,-1.8965,-1.9001,-1.9035,-1.9044,-1.9061,-1.9077,-1.9084,-1.9098,-1.9111,-1.9128,-1.9137,-1.9157,-1.9168,-1.9184,-1.9184,-1.9167,-1.9223,-1.92,-1.9225,-1.9226,-1.9239,-1.9239,-1.9312,-1.9244,-1.9244,-1.9244,-1.9243,0,-1.9021,-1.9052,-1.9054,-1.9075,-1.9109,-1.9107,-1.914,-1.9146,-1.9158,-1.9179,-1.917,-1.9191,-1.9189,-1.921,-1.9209,-1.9242,-1.9246,-1.9249,-1.9249,-1.9251,-1.9251,-1.9259,-1.9257,-1.9246,-1.9245,-1.9245,-1.9244,0,-1.9075,-1.9078,-1.9115,-1.9128,-1.9132,-1.9156,-1.9168,-1.9187,-1.919,-1.9218,-1.9224,-1.9229,-1.9253,-1.9254,-1.9281,-1.9281,-1.9321,-1.9316,-1.9317,-1.9316,-1.9343,-1.9341,-1.9426,-1.9437,-1.936,-1.9361,-1.9361,0,-1.9112,-1.9135,-1.9151,-1.9166,-1.9175,-1.9197,-1.9211,-1.921,-1.9225,-1.9243,-1.9261,-1.9284,-1.9302,-1.934,-1.9346,-1.9367,-1.9363,-1.9392,-1.9366,-1.9368,-1.9366,-1.9365,-1.9368,-1.9397,-1.9398,-1.9399,-1.9399,0,-1.9177,-1.9178,-1.9199,-1.922,-1.9237,-1.9254,-1.9269,-1.9281,-1.9282,-1.9299,-1.9323,-1.9338,-1.9365,-1.9389,-1.9409,-1.9416,-1.9408,-1.9407,-1.9414,-1.9417,-1.9417,-1.9419,-1.9332,-1.9405,-1.9405,-1.9404,-1.9404,-1.9404,-1.9225,-1.9246,-1.926,-1.9284,-1.9295,-1.931,-1.933,-1.9336,-1.9356,-1.938,-1.9377,-1.9405,-1.9418,-1.9444,-1.9453,-1.9475,-1.9465,-1.9475,-1.9478,-1.9481,-1.9485,-1.9413,-1.9478,-1.9478,-1.9478,-1.9477,-1.9477,0,-1.9291,-1.93,-1.9322,-1.9345,-1.9363,-1.9354,-1.937,-1.9386,-1.9411,-1.9424,-1.9443,-1.9471,-1.9494,-1.9501,-1.9523,-1.9538,-1.9535,-1.9544,-1.9544,-1.9546,-1.9491,-1.9484,-1.9546,-1.9546,-1.9546,-1.9546,-1.9546,-1.9546,-1.9328,-1.9363,-1.9365,-1.9405,-1.9414,-1.9441,-1.9452,-1.9465,-1.9476,-1.9509,-1.9527,-1.9532,-1.9543,-1.9566,-1.9586,-1.9587,-1.9596,-1.9607,-1.9607,-1.9557,-1.955,-1.9543,-1.9536,-1.9609,-1.9609,-1.966,-1.9661,-1.9661]}]]